SCP
0 0 0 0 0 0 0 0 0 0 0 0 0 0 0 0 0 0 0 0 0 0 0 0 0 0 0 0 0 0 0 0 0 0 0 0 0 0 0 0 0 0 0
0 0 0 0 0 0 0 0 0 0 0 0 0 0 0 0 0 0 0 0 0 0 0 0 0 0 0 0 0 0 0 0 0 0 0 0 0 0 0 0 0 0 0
0 0 0 0 0 0 0 0 0 0 0 0 0 0 0 0 0 0 0 0 0 0 0 0 0 0 0 0 0 0 0 0 0 0 0 0 0 0 0 0 0 0 0
0 0 0 0 0 0 0 0 0 0 0 0 0 0 0 0 0 0 0 0 0 0 0 0 0 0 0 0 0 0 0 0 0 0 0 0 0 0 0 0 0 0 0
0 0 0 0 0 0 0 0 0 0 0 0 0 0 0 0 0 0 0 0 0 0 0 0 0 0 0 0 0 0 0 0 0 0 0 0 0 0 0 0 0 0 0
0 0 0 0 0 0 0 0 0 0 0 0 0 0 0 0 0 0 0 0 0 0 0 0 0 0 0 0 0 0 0 0 0 0 0 0 0 0 0 0 0 0 0
0 0 0 0 0 0 0 0 0 0 0 0 0 0 0 0 0 0 0 0 0 0 0 0 0 0 0 0 0 0 0 0 0 0 0 0 0 0 0 0 0 0 0
0 0 0 0 0 0 0 0 0 0 0 0 0 0 0 0 0 0 0 0 0 0 0 0 0 0 0 0 0 0 0 0 0 0 0 0 0 0 0 0 0 0 0
0 0 0 0 0 0 0 0 0 0 0 0 0 0 0 0 0 0 0 0 0 0 0 0 0 0 0 0 0 0 0 0 0 0 0 0 0 0 0 0 0 0 0
0 0 0 0 0 0 0 0 0 0 0 0 0 0 0 0 0 0 0 0 0 0 0 0 0 0 0 0 0 0 0 0 0 0 0 0 0 0 0 0 0 0 0
0 0 0 0 0 0 0 0 0 0 0 0 0 0 0 0 0 0 0 0 0 0 0 0 0 0 0 0 0 0 0 0 0 0 0 0 0 0 0 0 0 0 0
0 0 0 0 0 0 0 0 0 0 0 0 0 0 0 0 0 0 0 0 0 0 0 0 0 0 0 0 0 0 0 0 0 0 0 0 0 0 0 0 0 0 0
0 0 0 0 0 0 0 0 0 0 0 0 0 0 0 0 0 0 0 0 0 0 0 0 0 0 0 0 0 0 0 0 0 0 0 0 0 0 0 0 0 0 0
0 0 0 0 0 0 0 0 0 0 0 0 0 0 0 0 0 0 0 0 0 0 0 0 0 0 0 0 0 0 0 0 0 0 0 0 0 0 0 0 0 0 0
0 0 0 0 0 0 0 0 0 0 0 0 0 0 0 0 0 0 0 0 0 0 0 0 0 0 0 0 0 0 0 0 0 0 0 0 0 0 0 0 0 0 0
0 0 0 0 0 0 0 0 0 0 0 0 0 0 0 -0 0 0 0 0 0 0 0 0 0 0 0 0 0 0 0 0 0 0 0 0 0 0 0 0 0 0 0
0 0 0 0 0 0 0 0 0 0 0 0 0 0 0 0 -0 0 0 0 0 0 0 0 0 0 0 0 0 0 0 0 0 0 0 0 0 0 0 0 0 0 0
0 0 0 0 0 0 0 0 0 0 0 0 0 0 0 0 0 0 0 0 0 0 0 0 0 0 0 0 0 0 0 0 0 0 0 0 0 0 0 0 0 0 0
0 0 0 0 0 0 0 0 0 0 0 0 0 0 0 0 0 0 0 0 0 0 0 0 0 0 0 0 0 0 0 0 0 0 0 0 0 0 0 0 0 0 0
0 0 0 0 0 0 0 0 0 0 0 0 0 0 0 0 0 0 0 0 0 0 0 0 0 0 0 0 0 0 0 0 0 0 0 0 0 0 0 0 0 0 0
0 0 0 0 0 0 0 0 0 0 0 0 0 0 0 0 0 0 0 0 0 0 0 0 0 0 0 0 0 0 0 0 0 0 0 0 0 0 0 0 0 0 0
0 0 0 0 0 0 0 0 0 0 0 0 0 0 0 0 0 0 0 0 0 0 0 0 0 0 0 0 0 0 0 0 0 0 0 0 0 0 0 0 0 0 0
0 0 0 0 0 0 0 0 0 0 0 0 0 0 0 0 0 0 0 0 0 0 0 0 0 0 0 0 0 0 0 0 0 0 0 0 0 0 0 0 0 0 0
0 0 0 0 0 0 0 0 0 0 0 0 0 0 0 0 0 0 0 0 0 0 0 0 0 0 0 0 0 0 0 0 0 0 0 0 0 0 0 0 0 0 0
0 0 0 0 0 0 0 0 0 0 0 0 0 0 0 0 0 0 0 0 0 0 0 0 0 0 0 0 0 0 0 0 0 0 0 0 0 0 0 0 0 0 0
0 0 0 0 0 0 0 0 0 0 0 0 0 0 0 0 0 0 0 0 0 0 0 0 0 0 0 0 0 0 0 0 0 0 0 0 0 0 0 0 0 0 0
Wind_Speed
4 3 2 2 2 2 3 3 3 4 4 4 4 5 4 4 3 3 2 6 7 8 9 9 8 8 9 9 9 9 9 9 8 8 8 8 8 8 8 9 8 8 9
4 4 3 3 2 2 2 3 4 4 3 3 4 4 4 3 3 3 3 3 6 7 7 7 7 7 7 8 8 7 8 8 8 8 8 8 8 7 7 7 7 7 7
5 5 4 3 2 2 3 3 4 4 3 4 4 3 3 3 3 3 3 2 3 5 6 7 7 6 7 7 8 7 7 7 8 8 7 7 8 8 7 7 7 7 6
5 5 4 3 3 3 3 3 3 4 3 3 3 2 2 2 3 3 3 3 2 2 4 6 5 5 6 6 6 6 7 7 7 7 7 7 7 7 7 7 7 6 6
4 5 4 3 4 3 3 3 3 3 4 3 3 2 2 2 2 2 3 3 3 3 2 4 5 4 4 5 5 5 6 6 6 6 6 5 5 5 6 6 6 6 5
4 4 4 4 4 4 3 3 4 3 3 3 3 3 2 2 1 2 2 2 2 2 2 2 2 2 3 4 4 4 5 5 5 5 5 4 4 4 4 4 4 5 5
4 4 4 4 4 4 4 4 4 4 3 3 3 2 2 2 1 1 1 1 2 2 2 2 1 1 1 2 2 2 3 3 4 4 4 3 3 3 3 3 3 4 4
4 4 5 5 4 4 5 4 4 3 2 2 3 3 1 1 1 1 0 1 1 1 1 1 1 1 1 1 1 1 1 1 1 2 3 3 3 2 2 2 2 2 2
3 4 4 5 5 5 5 5 5 5 4 2 2 3 3 3 1 1 1 0 1 1 1 1 1 0 1 0 0 1 1 1 1 1 1 2 2 1 1 1 1 0 1
4 3 4 4 5 4 5 5 4 3 5 4 2 1 2 3 3 1 1 1 1 1 1 1 1 1 1 0 0 1 0 1 2 2 2 2 1 1 1 1 1 1 1
3 3 4 4 4 5 5 5 4 4 4 4 3 2 1 1 2 3 3 2 1 2 2 2 2 1 1 1 1 1 1 1 2 3 3 3 2 2 1 1 2 2 1
2 3 3 3 3 3 5 6 5 5 4 4 3 3 3 3 3 3 3 3 3 2 2 2 3 3 2 2 2 2 2 2 3 4 4 4 3 3 2 3 3 3 3
2 3 3 3 3 3 4 5 5 6 6 5 5 3 3 3 3 2 3 3 2 2 1 2 3 3 2 2 2 3 3 3 4 4 4 4 4 3 3 4 4 4 4
3 4 4 3 3 3 3 4 4 5 5 5 5 4 3 2 2 3 3 3 2 2 2 3 2 3 3 2 3 3 3 4 4 5 5 4 3 3 4 4 4 4 5
3 3 4 4 3 3 4 4 4 5 5 5 5 5 3 3 3 2 2 3 4 4 4 4 3 3 3 2 4 3 3 5 6 5 5 4 4 4 4 4 5 4 4
3 3 4 4 4 4 4 4 4 4 5 5 4 5 5 3 3 3 3 3 3 4 4 3 3 2 3 3 4 3 3 5 6 6 6 5 5 4 4 4 5 4 4
4 4 4 5 5 5 4 4 5 5 6 5 5 6 6 5 4 4 3 3 3 3 4 3 2 2 3 3 3 3 3 3 3 6 6 6 5 5 5 5 5 5 5
4 4 4 5 6 5 5 5 5 6 7 7 6 6 6 5 6 5 4 4 4 4 4 5 2 2 3 4 4 3 3 2 3 5 6 7 7 7 7 6 6 6 6
4 4 4 5 6 6 5 6 6 6 7 7 7 7 7 6 6 5 5 5 4 3 3 4 3 2 2 2 2 2 2 2 2 4 6 7 7 7 7 7 7 7 7
4 5 5 5 5 5 6 6 6 5 6 7 7 7 7 7 7 7 6 6 5 4 3 3 3 3 2 2 2 3 3 2 3 2 4 4 6 7 7 8 8 7 7
4 4 4 4 4 4 5 6 6 5 6 6 6 7 7 8 9 7 6 6 6 5 4 4 4 3 3 3 4 3 3 2 3 2 2 3 3 3 4 7 7 8 9
3 3 4 4 5 4 7 9 6 5 5 6 6 5 6 7 9 11 10 9 8 7 6 5 5 6 6 5 4 3 3 3 3 2 2 3 3 4 4 3 7 9 9
3 3 4 4 5 6 8 9 9 5 5 5 6 5 5 5 7 6 8 9 10 11 10 7 7 7 6 6 5 5 5 4 4 3 3 4 3 4 3 4 9 9 9
3 4 4 5 5 5 8 8 8 4 4 4 5 6 6 5 6 6 5 5 6 6 7 6 6 6 6 5 6 6 5 3 2 2 3 4 3 3 3 4 8 10 9
3 4 4 4 5 5 8 8 7 3 4 4 5 5 6 6 8 8 6 6 5 5 6 7 7 7 8 7 6 3 3 3 3 3 2 3 2 2 3 3 5 9 9
3 3 3 3 4 4 7 8 7 3 4 4 3 4 7 7 8 8 6 6 7 5 4 3 4 5 4 5 6 6 5 5 3 3 3 3 2 1 3 2 2 3 5
Wind_Direction
128 118 110 101 96 99 101 99 95 95 90 84 79 84 79 69 59 49 49 78 91 99 102 102 100 103 101 98 97 95 92 91 90 88 85 82 80 80 78 74 77 80 80
139 132 120 114 107 108 109 110 110 104 95 90 82 80 87 80 68 57 45 59 76 92 100 104 103 107 110 107 104 102 100 95 93 90 86 82 80 78 74 71 70 76 81
146 139 132 128 126 116 111 108 104 100 95 89 82 72 82 83 82 72 59 49 51 67 90 98 106 108 111 110 106 104 103 96 90 86 87 85 78 73 70 68 70 70 78
147 140 137 137 133 121 115 118 116 108 101 95 87 70 68 76 77 78 73 65 56 48 59 77 94 105 109 111 111 112 111 105 96 92 87 83 79 75 72 67 65 65 70
147 145 141 140 136 125 119 126 118 123 121 107 97 74 54 68 72 75 77 72 67 61 48 49 58 79 98 106 112 116 115 111 105 99 94 91 87 82 77 69 63 60 61
143 148 143 143 140 134 126 127 127 115 123 121 100 70 39 33 59 77 85 75 67 69 65 52 38 36 64 89 95 108 122 120 114 111 109 104 100 92 84 76 66 61 57
150 147 150 150 150 150 150 141 133 129 121 119 103 74 22 16 45 58 74 90 73 67 72 60 44 41 25 47 76 84 106 122 127 123 120 123 120 110 99 89 74 61 58
159 154 160 163 161 152 148 148 140 136 145 149 134 124 79 348 340 3 33 115 114 88 82 71 69 74 54 15 4 69 56 110 141 148 141 136 136 131 124 104 86 66 53
167 169 163 167 167 163 167 171 163 153 162 183 164 147 157 195 226 287 279 183 148 140 164 158 121 108 112 63 330 11 33 12 229 204 174 162 161 171 173 154 134 81 31
175 169 168 176 176 171 174 181 178 168 163 173 189 194 172 153 164 207 261 253 236 210 209 206 194 192 158 172 316 354 337 297 251 236 225 214 213 231 212 196 224 263 301
185 176 176 179 185 183 183 183 179 175 177 177 176 171 156 156 154 169 209 227 249 236 224 216 208 208 202 199 219 237 240 255 251 244 235 229 235 255 255 245 250 258 274
199 190 190 188 189 191 189 190 187 185 188 186 186 181 174 174 182 184 191 205 225 240 242 227 213 218 216 206 226 238 242 247 252 254 249 242 244 253 270 279 275 269 270
211 209 205 202 197 199 204 191 189 193 191 189 193 199 199 199 181 185 179 189 214 251 244 234 224 216 216 209 225 230 246 252 253 253 251 250 253 261 271 278 278 274 274
213 206 207 208 208 199 208 200 194 198 194 193 199 199 203 210 198 193 182 170 184 229 236 242 240 215 213 209 226 228 238 252 252 252 254 260 261 270 276 275 274 277 273
213 209 207 207 206 202 207 203 200 203 198 199 199 199 204 210 208 206 200 183 177 199 228 226 221 220 216 213 223 219 229 251 253 252 252 254 254 259 270 275 274 279 279
208 209 212 208 208 204 206 206 203 205 200 204 200 200 206 211 207 207 209 204 199 200 221 217 225 226 219 233 231 223 231 251 255 253 250 250 251 253 261 268 269 268 275
205 210 213 212 209 204 204 205 210 204 206 207 206 205 210 205 205 206 210 202 204 201 225 245 232 218 208 217 226 222 225 228 246 252 252 250 251 256 256 257 262 265 268
208 208 209 214 216 212 206 205 211 208 207 209 210 210 216 209 211 208 210 208 208 204 208 232 236 213 218 218 214 220 232 237 235 252 258 254 252 252 252 252 255 261 268
215 213 209 211 215 214 212 214 212 216 210 210 209 211 214 208 215 213 215 212 210 208 207 216 229 217 220 216 215 232 235 236 243 249 257 256 253 252 253 253 253 256 262
214 214 210 210 214 217 216 215 215 221 218 215 212 213 211 210 215 214 216 212 206 202 201 211 221 216 215 213 204 219 240 237 245 253 258 259 258 257 257 254 251 252 257
219 211 203 207 212 216 219 213 211 216 222 219 219 218 218 222 224 223 217 206 199 203 202 208 216 215 214 201 212 210 227 242 254 239 246 256 257 254 252 251 251 252 254
220 208 206 206 212 225 234 230 222 214 221 220 223 227 228 227 233 235 233 224 209 204 207 209 217 217 220 213 207 209 210 220 252 226 219 251 234 244 246 241 253 257 257
217 216 211 213 219 229 233 232 229 221 219 223 219 222 230 230 232 223 231 233 227 226 219 211 218 220 218 209 202 211 214 220 234 216 210 246 228 241 247 252 255 257 260
219 221 217 218 222 232 234 234 235 221 223 231 224 218 219 225 227 219 214 220 224 225 225 221 220 223 221 210 205 209 215 225 260 244 214 246 239 245 258 261 258 258 263
230 230 224 216 221 233 236 236 232 214 225 234 237 223 219 219 230 229 215 217 226 233 236 234 235 236 233 226 207 183 192 206 243 244 207 227 243 261 263 256 262 264 267
235 239 242 233 230 233 236 236 232 216 225 233 238 229 230 229 226 224 214 209 221 226 218 232 242 252 239 222 217 204 197 207 224 244 208 199 217 221 275 265 255 266 268